Probability
0 0 0 0 0 0 0 0 0 0 0 0 0 0 0 0 0 0 0 0 0 0 0 0 0 0 0 0 0 0 0 0 0 0 0 0 0 1 2 2 2 2 3 3
0 0 0 0 0 0 0 0 0 0 0 0 0 0 0 0 0 0 0 0 0 0 0 0 0 0 0 0 0 0 0 0 0 0 0 0 0 0 1 1 2 2 3 3
0 0 0 0 0 0 0 0 0 0 0 0 0 0 0 0 0 0 0 0 0 0 0 0 0 0 0 0 0 0 0 0 0 0 0 0 0 0 0 1 2 2 3 3
0 0 0 0 0 0 0 0 0 0 0 0 0 0 0 0 0 0 0 0 0 0 0 0 0 0 0 0 0 0 0 0 0 0 0 0 0 0 0 0 1 1 2 3
0 0 0 0 0 0 0 0 0 0 0 0 0 0 0 0 0 0 0 0 0 0 0 0 0 0 0 0 0 0 0 0 0 0 0 0 0 0 0 0 0 0 1 2
0 0 0 0 0 0 0 0 0 0 0 0 0 0 0 0 0 0 0 0 0 0 0 0 0 0 0 0 0 0 0 0 0 0 0 0 0 0 0 0 0 0 0 1
0 0 0 0 0 0 0 0 0 0 0 0 0 0 0 0 0 0 0 0 0 0 0 0 0 0 0 0 0 0 0 0 0 0 0 0 0 0 0 0 0 0 0 0
0 0 0 0 0 0 0 0 0 0 0 0 0 0 0 0 0 0 0 0 0 0 0 0 0 0 0 0 0 0 0 0 0 0 0 0 0 0 0 0 0 0 0 0
0 0 0 0 0 0 0 0 0 0 0 0 0 0 0 0 0 0 0 0 0 0 0 0 0 0 0 0 0 0 0 0 0 0 0 0 0 0 0 0 0 0 0 0
0 0 0 0 0 0 0 0 0 0 0 0 0 0 0 0 0 0 0 0 0 0 0 0 0 0 0 0 0 0 0 0 0 0 0 0 0 0 0 0 0 0 0 0
0 0 0 0 0 0 0 0 0 0 0 0 0 0 0 0 0 0 0 0 0 0 0 0 0 0 0 0 0 0 0 0 0 0 0 0 0 0 0 0 0 0 0 0
0 0 0 0 0 0 0 0 0 0 0 0 0 0 0 0 0 0 0 0 0 0 0 0 0 0 0 0 0 0 0 0 0 0 0 0 0 0 0 0 0 0 0 0
0 0 0 0 0 0 0 0 0 0 0 0 0 0 0 0 0 0 0 0 0 0 0 0 0 0 0 0 0 0 0 0 0 0 0 0 0 0 0 0 0 0 0 0
0 0 0 0 0 0 0 0 0 0 0 0 0 0 0 0 0 0 0 0 0 0 0 0 0 0 0 0 0 0 0 0 0 0 0 0 0 0 0 0 0 0 0 0
0 0 0 0 0 0 0 0 0 0 0 0 0 0 0 0 0 0 0 0 0 0 0 0 0 0 0 0 0 0 0 0 0 0 0 0 0 0 0 0 0 0 0 0
0 0 0 0 0 0 0 0 0 0 0 0 0 0 0 0 0 0 0 0 0 0 0 0 0 0 0 0 0 0 0 0 0 0 0 0 0 0 0 0 0 0 0 0
0 0 0 0 0 0 0 0 0 0 0 0 0 0 0 0 0 0 0 0 0 0 0 0 0 0 0 0 0 0 0 0 0 0 0 0 0 0 0 0 0 0 0 0
0 0 0 0 0 0 0 0 0 0 0 0 0 0 0 0 0 0 0 0 0 0 0 0 0 0 0 0 0 0 0 0 0 0 0 0 0 0 0 0 0 0 0 0
0 0 0 0 0 0 0 0 0 0 0 0 0 0 0 0 0 0 0 0 0 0 0 0 0 0 0 0 0 0 0 0 0 0 0 0 0 0 0 0 0 0 0 0
0 0 0 0 0 0 0 0 0 0 0 0 0 0 0 0 0 0 0 0 0 0 0 0 0 0 0 0 0 0 0 0 0 0 0 0 0 0 0 0 0 0 0 0
0 0 0 0 0 0 0 0 0 0 0 0 0 0 0 0 0 0 0 0 0 0 0 0 0 0 0 0 0 0 0 0 0 0 0 0 0 0 0 0 0 0 0 0
0 0 0 0 0 0 0 0 0 0 0 0 0 0 0 0 0 0 0 0 0 0 0 0 0 0 0 0 0 0 0 0 0 0 0 0 0 0 0 0 0 0 0 0
0 0 0 0 0 0 0 0 0 0 0 0 0 0 0 0 0 0 0 0 0 0 0 0 0 0 0 0 0 0 0 0 0 0 0 0 0 0 0 0 0 0 0 0
0 0 0 0 0 0 0 0 0 0 0 0 0 0 0 0 0 0 0 0 0 0 0 0 0 0 0 0 0 0 0 0 0 0 0 0 0 0 0 0 0 0 0 0
0 0 0 0 0 0 0 0 0 0 0 0 0 0 0 0 0 0 0 0 0 0 0 0 0 0 0 0 0 0 0 0 0 0 0 0 0 0 0 0 0 0 0 0
0 0 0 0 0 0 0 0 0 0 0 0 0 0 0 0 0 0 0 0 0 0 0 0 0 0 0 0 0 0 0 0 0 0 0 0 0 0 0 0 0 0 0 0
Wind_Speed
4 6 3 2 1 2 2 1 1 2 1 1 3 6 8 6 4 5 5 5 5 4 3 2 2 3 3 2 1 1 1 1 1 1 1 1 1 1 2 2 2 2 2 2
6 4 3 2 1 2 2 2 1 3 3 1 3 7 7 5 5 7 7 7 6 4 3 2 2 2 2 2 1 1 1 1 1 0 0 1 1 1 1 2 2 2 2 2
3 2 2 2 4 4 3 1 1 2 4 3 3 7 4 4 3 3 4 5 5 7 7 5 4 3 3 3 3 2 2 1 1 1 1 1 1 1 1 2 2 2 2 2
2 2 2 3 3 2 1 1 1 1 3 3 2 4 7 3 3 4 4 4 5 5 5 5 5 4 4 4 3 2 2 1 1 1 1 1 1 1 2 1 2 2 2 2
1 2 3 2 2 1 2 2 1 1 1 2 2 1 9 3 3 5 5 6 5 5 5 5 6 6 5 4 3 3 2 2 2 1 2 1 1 1 2 1 2 2 2 2
1 2 0 1 2 0 1 3 4 4 4 2 3 3 8 4 6 5 4 5 5 4 4 4 4 3 3 2 2 2 3 2 2 2 2 2 3 2 2 2 2 2 2 2
4 3 2 1 2 4 4 5 4 5 3 5 2 3 10 7 5 5 5 4 4 4 4 4 3 4 3 3 3 3 3 3 3 2 2 3 3 3 3 3 3 3 2 2
1 4 3 1 1 0 1 3 4 3 4 6 3 5 8 5 3 2 3 3 3 4 4 4 4 4 4 4 4 4 4 4 3 3 3 3 3 2 3 4 3 3 2 3
1 4 3 1 1 2 1 1 3 4 1 3 6 7 8 2 1 0 1 2 2 3 4 4 4 4 4 4 4 4 4 4 4 4 3 3 3 3 4 4 3 3 3 3
3 3 3 2 1 0 2 3 3 3 1 4 6 6 5 4 3 2 2 3 3 2 3 3 3 3 4 4 3 3 4 5 4 4 4 3 4 4 4 3 3 3 3 3
2 2 3 2 2 4 2 2 3 2 3 3 5 8 6 6 5 5 4 3 4 4 4 4 4 3 3 3 2 3 3 4 4 4 4 4 4 4 4 4 4 4 3 3
2 3 3 5 4 3 4 5 6 4 4 4 4 11 5 4 3 3 3 3 3 4 4 4 4 3 3 3 3 3 4 4 4 4 4 4 4 4 4 4 4 4 4 3
3 3 2 4 2 1 2 3 4 3 3 4 5 10 3 1 1 2 3 4 4 4 4 3 3 3 4 4 4 4 4 5 4 4 4 4 4 4 5 5 4 4 4 4
3 3 6 7 5 3 4 5 5 5 5 6 11 12 8 6 5 5 5 5 5 5 4 4 3 4 4 4 4 4 5 4 4 4 4 5 5 5 5 5 5 4 4 4
3 4 6 8 8 7 10 11 10 12 11 11 10 11 13 9 8 6 5 5 5 5 5 4 4 4 4 4 4 4 5 4 4 4 5 6 5 5 4 4 4 4 4 5
3 3 3 7 7 8 12 15 14 14 12 15 14 16 13 9 6 6 6 6 5 5 5 5 4 4 5 5 5 5 5 5 4 5 6 5 5 4 5 5 4 4 4 4
4 4 3 6 5 5 11 12 12 9 9 10 15 14 7 5 6 7 6 5 5 5 5 5 5 6 6 6 5 6 5 4 4 5 5 5 5 5 5 5 4 5 5 4
6 5 3 4 3 9 9 3 7 8 9 10 9 7 6 7 7 5 5 5 4 5 5 5 5 5 5 5 5 5 4 4 4 5 5 5 5 5 5 5 5 5 4 5
7 7 4 3 5 11 10 5 5 6 7 7 9 8 6 4 1 3 4 4 5 5 6 6 6 5 5 5 5 4 4 4 5 5 6 6 5 5 5 5 6 5 4 5
3 5 5 5 6 9 7 2 1 2 6 4 4 5 3 0 2 5 4 4 5 5 5 5 5 4 5 5 4 4 5 5 6 6 6 6 5 5 6 6 6 4 4 5
4 5 8 9 9 11 7 2 2 3 6 2 2 3 3 4 6 6 4 5 5 5 5 5 5 5 6 5 3 5 5 7 7 6 5 5 5 6 6 5 4 4 4 4
9 8 8 7 9 12 3 4 5 7 4 3 3 3 4 6 6 6 5 5 5 5 6 5 5 6 6 4 4 5 7 7 5 5 5 6 6 5 4 5 5 4 4 4
9 10 7 10 10 6 4 7 6 4 4 4 4 5 5 6 6 6 6 6 6 6 6 6 6 7 6 5 5 7 8 5 5 5 6 6 5 5 4 4 5 4 4 4
6 4 5 7 9 8 7 6 5 4 5 5 6 6 5 7 8 8 7 7 7 6 6 6 5 6 7 6 6 7 7 5 4 6 6 5 5 5 4 4 4 4 5 5
7 5 6 9 9 7 6 6 6 6 6 7 6 6 7 8 9 8 7 7 7 6 6 5 6 7 8 6 6 6 6 4 5 6 6 5 5 5 5 5 5 6 6 7
7 8 8 10 8 7 8 6 6 6 7 7 7 7 6 6 8 7 7 6 6 7 6 6 6 7 7 6 7 6 5 5 5 6 5 5 4 4 4 4 5 8 8 10
Wind_Direction
34 55 34 298 234 200 163 139 282 274 297 352 250 262 270 265 225 225 228 225 216 213 210 185 155 140 124 110 111 120 115 79 58 51 51 35 349 337 344 337 354 6 8 8
44 26 300 292 21 70 85 78 338 318 337 326 280 279 270 252 224 216 215 216 209 194 188 189 173 153 148 157 163 160 170 145 114 110 147 196 226 287 293 316 341 346 354 354
98 273 315 38 38 56 43 119 245 300 341 2 351 316 299 281 256 238 215 207 201 191 191 191 183 186 180 191 199 195 195 176 160 136 86 43 28 358 344 340 336 335 344 351
51 329 21 50 28 59 352 294 284 2 29 321 46 302 290 279 278 252 233 209 207 202 193 192 188 193 203 210 207 203 198 191 189 154 134 145 177 256 275 295 300 318 339 346
349 354 36 44 325 53 240 286 321 20 78 338 334 204 284 303 258 250 236 220 212 206 196 197 201 204 207 204 202 207 199 202 198 183 181 184 233 256 285 305 310 315 323 330
317 327 47 253 300 342 335 25 36 44 65 316 242 183 276 251 229 242 240 220 208 204 202 207 211 202 206 203 203 204 202 220 214 204 204 206 230 253 281 293 294 296 300 313
347 338 337 3 14 12 48 64 30 2 1 261 266 211 254 259 240 216 216 214 202 196 197 204 205 206 209 207 212 210 207 226 227 218 223 227 231 232 243 259 266 278 289 296
3 307 300 338 148 204 357 120 146 208 248 288 310 243 260 285 280 214 195 188 186 198 208 213 211 208 211 213 214 214 217 230 229 224 234 238 235 232 244 247 249 256 263 269
173 269 302 282 220 146 123 151 168 140 257 278 279 284 299 316 332 127 158 162 196 214 218 222 222 215 218 219 219 216 222 234 236 231 235 243 241 238 248 252 247 252 260 267
164 267 289 299 32 340 160 149 94 122 198 275 289 273 251 252 247 229 204 200 223 232 233 235 234 231 232 226 225 223 222 227 233 233 234 239 240 241 246 247 250 253 256 257
141 189 302 335 213 208 171 169 148 152 177 193 275 272 231 217 219 216 220 225 230 233 236 237 237 239 239 236 229 230 235 239 244 241 239 243 248 247 245 243 244 245 249 248
150 137 263 261 255 225 193 191 162 176 228 200 225 269 271 229 222 202 220 243 252 246 245 244 240 238 239 239 239 238 239 240 242 239 237 242 248 249 246 247 247 242 243 242
143 132 326 328 318 298 230 214 189 171 175 201 217 261 299 321 278 256 252 259 261 253 249 248 249 248 246 247 249 248 245 245 247 241 239 244 246 246 247 248 247 240 237 241
133 174 195 219 230 211 244 243 211 183 210 232 231 254 276 279 279 285 278 262 258 257 250 248 251 252 254 253 251 253 256 251 251 248 246 248 245 243 245 247 245 239 233 235
143 221 240 254 261 253 247 248 230 221 218 227 246 247 259 258 256 258 257 259 262 263 261 254 254 255 259 261 262 259 259 257 250 248 251 252 252 249 246 245 245 240 233 234
171 227 260 272 260 257 263 254 237 233 230 238 254 265 259 256 251 255 259 253 251 257 257 258 260 259 259 258 259 259 259 255 246 245 250 256 258 255 247 244 243 240 239 238
199 199 247 273 297 315 267 240 219 215 214 209 235 248 262 260 253 248 247 245 244 250 254 257 258 253 253 252 248 252 254 258 251 250 255 256 252 252 249 244 238 237 238 236
186 189 219 273 323 250 244 227 200 217 237 222 233 250 250 244 249 246 231 221 242 255 257 258 258 259 259 253 252 255 260 258 255 256 257 254 248 251 251 243 238 238 236 234
186 180 202 226 253 273 284 256 193 200 261 229 229 248 258 269 310 290 241 218 231 243 247 250 250 254 258 259 255 255 259 258 256 257 258 255 248 250 250 245 244 239 235 239
168 179 197 213 236 249 252 252 175 126 271 257 217 235 249 108 288 270 254 252 258 259 255 255 258 260 263 264 256 251 259 259 257 256 257 257 249 244 244 245 245 239 233 238
160 193 213 224 240 261 258 241 124 200 252 269 218 222 214 214 232 253 265 265 258 260 263 261 260 258 257 259 247 250 256 255 257 259 261 261 253 247 247 247 243 240 236 240
183 188 203 203 224 250 228 146 193 229 260 258 242 234 234 245 257 263 263 264 266 270 271 267 262 263 262 251 239 253 258 259 260 258 259 259 255 252 248 242 244 236 228 235
205 199 195 202 221 249 213 214 228 227 236 246 251 254 252 258 263 265 264 265 268 266 267 264 260 266 268 252 235 250 261 261 260 261 262 263 260 253 243 233 236 237 228 230
241 210 212 246 258 262 263 257 264 250 249 258 258 258 254 259 264 266 265 267 266 266 266 266 265 266 271 263 250 249 261 257 253 260 264 263 258 257 251 240 231 230 231 233
228 206 228 251 267 283 271 249 252 258 261 264 263 255 253 257 263 262 265 266 265 267 266 261 258 261 267 269 265 261 257 251 253 259 262 261 252 248 248 244 237 235 232 226
210 212 224 247 248 249 264 264 260 259 261 264 268 273 267 256 262 267 267 265 264 265 265 262 261 263 269 270 269 266 255 242 245 259 260 255 250 248 245 250 264 250 244 247